H1 CPF 2 NER 2022 5 24 7 144 01 glonass107 H2 0706501 9107 32393 2022 5 24 0 0 0 2022 5 27 23 45 0 900 1 1 0 0 0 1 H9 10 0 59723 0.00000 0 -9003529.071 10217328.811 21553437.676 10 0 59723 900.00000 0 -11582867.951 10327031.861 20229493.588 10 0 59723 1800.00000 0 -13960936.077 10605870.752 18512104.564 10 0 59723 2700.00000 0 -16081694.600 11019487.433 16434692.669 10 0 59723 3600.00000 0 -17898115.513 11524710.589 14037684.316 10 0 59723 4500.00000 0 -19373926.800 12071510.969 11367720.255 10 0 59723 5400.00000 0 -20484916.316 12605260.990 8476743.881 10 0 59723 6300.00000 0 -21219740.718 13069202.464 5420985.861 10 0 59723 7200.00000 0 -21580206.534 13407017.429 2259865.310 10 0 59723 8100.00000 0 -21581012.822 13565392.687 -945170.576 10 0 59723 9000.00000 0 -21248967.572 13496468.970 -4131845.301 10 0 59723 9900.00000 0 -20621712.155 13160070.612 -7238266.227 10 0 59723 10800.00000 0 -19746008.860 12525621.064 -10204128.102 10 0 59723 11700.00000 0 -18675664.759 11573662.980 -12971883.219 10 0 59723 12600.00000 0 -17469180.263 10296918.474 -15487855.335 10 0 59723 13500.00000 0 -16187221.881 8700844.589 -17703275.972 10 0 59723 14400.00000 0 -14890025.727 6803660.252 -19575223.463 10 0 59723 15300.00000 0 -13634840.727 4635843.122 -21067447.218 10 0 59723 16200.00000 0 -12473518.391 2239116.731 -22151062.154 10 0 59723 17100.00000 0 -11450349.472 -335030.686 -22805100.785 10 0 59723 18000.00000 0 -10600237.264 -3027234.912 -23016913.165 10 0 59723 18900.00000 0 -9947283.081 -5772474.694 -22782407.698 10 0 59723 19800.00000 0 -9503842.153 -8502530.100 -22106128.661 10 0 59723 20700.00000 0 -9270088.753 -11148579.535 -21001169.092 10 0 59723 21600.00000 0 -9234108.137 -13643829.084 -19488920.631 10 0 59723 22500.00000 0 -9372511.142 -15926066.365 -17598664.647 10 0 59723 23400.00000 0 -9651545.583 -17940033.807 -15367011.891 10 0 59723 24300.00000 0 -10028657.863 -19639523.726 -12837200.674 10 0 59723 25200.00000 0 -10454439.395 -20989108.645 -10058266.221 10 0 59723 26100.00000 0 -10874876.111 -21965434.997 -7084096.462 10 0 59723 27000.00000 0 -11233806.464 -22558026.642 -3972391.934 10 0 59723 27900.00000 0 -11475484.158 -22769564.443 -783549.363 10 0 59723 28800.00000 0 -11547137.110 -22615630.189 2420509.496 10 0 59723 29700.00000 0 -11401414.037 -22123925.696 5577540.995 10 0 59723 30600.00000 0 -10998614.407 -21332999.823 8626191.107 10 0 59723 31500.00000 0 -10308606.480 -20290537.029 11507191.225 10 0 59723 32400.00000 0 -9312351.064 -19051279.570 14164514.568 10 0 59723 33300.00000 0 -8002965.173 -17674671.021 16546470.185 10 0 59723 34200.00000 0 -6386279.211 -16222320.583 18606712.750 10 0 59723 35100.00000 0 -4480862.541 -14755395.145 20305148.185 10 0 59723 36000.00000 0 -2317514.765 -13332049.033 21608717.272 10 0 59723 36900.00000 0 61757.431 -12004999.724 22492041.815 10 0 59723 37800.00000 0 2605236.411 -10819351.474 22937920.802 10 0 59723 38700.00000 0 5253401.404 -9810758.215 22937666.904 10 0 59723 39600.00000 0 7941169.241 -9004002.741 22491276.749 10 0 59723 40500.00000 0 10600375.391 -8412051.504 21607431.681 10 0 59723 41400.00000 0 13162392.518 -8035624.248 20303328.893 10 0 59723 42300.00000 0 15560777.757 -7863296.005 18604346.148 10 0 59723 43200.00000 0 17733838.774 -7872126.439 16543546.484 10 0 59723 44100.00000 0 19627011.846 -8028789.204 14161032.464 10 0 59723 45000.00000 0 21194952.960 -8291152.884 11503162.540 10 0 59723 45900.00000 0 22403254.942 -8610245.849 8621644.933 10 0 59723 46800.00000 0 23229719.322 -8932521.090 5572526.843 10 0 59723 47700.00000 0 23665130.303 -9202324.395 2415099.192 10 0 59723 48600.00000 0 23713499.298 -9364460.539 -789261.294 10 0 59723 49500.00000 0 23391770.820 -9366748.149 -3978289.580 10 0 59723 50400.00000 0 22729003.220 -9162454.400 -7090045.383 10 0 59723 51300.00000 0 21765059.933 -8712506.052 -10064117.759 10 0 59723 52200.00000 0 20548867.348 -7987382.840 -12842797.498 10 0 59723 53100.00000 0 19136313.502 -6968612.973 -15372194.359 10 0 59723 54000.00000 0 17587876.571 -5649807.331 -17603277.687 10 0 59723 54900.00000 0 15966083.048 -4037188.433 -19492820.705 10 0 59723 55800.00000 0 14332902.259 -2149591.570 -21004230.793 10 0 59723 56700.00000 0 12747185.992 -17937.388 -22108250.588 10 0 59723 57600.00000 0 11262259.716 2315802.823 -22783517.285 10 0 59723 58500.00000 0 9923765.237 4800106.903 -23016970.152 10 0 59723 59400.00000 0 8767843.829 7375805.377 -22804099.181 10 0 59723 60300.00000 0 7819734.638 9978310.966 -22149030.570 10 0 59723 61200.00000 0 7092845.831 12540082.681 -21064447.537 10 0 59723 62100.00000 0 6588336.412 14993223.589 -19571347.945 10 0 59723 63000.00000 0 6295225.402 17272105.636 -17698642.895 10 0 59723 63900.00000 0 6191023.381 19315913.488 -15482603.465 10 0 59723 64800.00000 0 6242859.549 21071002.521 -12966165.382 10 0 59723 65700.00000 0 6409056.889 22492973.361 -10198104.181 10 0 59723 66600.00000 0 6641089.129 23548376.891 -7232096.088 10 0 59723 67500.00000 0 6885837.088 24215978.567 -4125682.050 10 0 59723 68400.00000 0 7088049.084 24487529.031 -939154.499 10 0 59723 69300.00000 0 7192901.309 24368008.624 2265611.636 10 0 59723 70200.00000 0 7148549.443 23875335.194 5426361.030 10 0 59723 71100.00000 0 6908562.930 23039547.280 8481669.561 10 0 59723 72000.00000 0 6434138.076 21901496.819 11372141.342 10 0 59723 72900.00000 0 5695995.182 20511106.167 14041567.474 10 0 59723 73800.00000 0 4675878.204 18925262.659 16438023.497 10 0 59723 74700.00000 0 3367592.172 17205439.355 18514883.650 10 0 59723 75600.00000 0 1777533.023 15415141.997 20231731.879 10 0 59723 76500.00000 0 -75314.077 13617289.530 21555151.686 10 0 59723 77400.00000 0 -2159909.379 11871638.230 22459379.214 10 0 59723 78300.00000 0 -4434205.246 10232357.474 22926806.909 10 0 59723 79200.00000 0 -6846662.409 8745858.662 22948327.933 10 0 59723 80100.00000 0 -9338173.491 7448968.060 22523514.644 10 0 59723 81000.00000 0 -11844314.339 6367519.706 21660627.656 10 0 59723 81900.00000 0 -14297830.007 5515426.752 20376455.242 10 0 59723 82800.00000 0 -16631251.995 4894269.491 18695986.113 10 0 59723 83700.00000 0 -18779537.957 4493416.428 16651921.820 10 0 59723 84600.00000 0 -20682623.859 4290672.273 14284038.159 10 0 59723 85500.00000 0 -22287782.056 4253424.478 11638408.052 10 0 59724 0.00000 0 -23551686.778 4340238.799 8766501.331 10 0 59724 900.00000 0 -24442101.436 4502835.393 5724177.650 10 0 59724 1800.00000 0 -24939115.728 4688360.694 2570596.447 10 0 59724 2700.00000 0 -25035883.510 4841858.009 -632939.467 10 0 59724 3600.00000 0 -24738829.363 4908831.225 -3824179.780 10 0 59724 4500.00000 0 -24067316.786 4837792.286 -6941139.599 10 0 59724 5400.00000 0 -23052792.770 4582683.922 -9923305.078 10 0 59724 6300.00000 0 -21737445.649 4105074.603 -12712808.001 10 0 59724 7200.00000 0 -20172433.461 3376032.569 -15255546.287 10 0 59724 8100.00000 0 -18415757.853 2377599.492 -17502228.885 10 0 59724 9000.00000 0 -16529873.060 1103801.375 -19409325.234 10 0 59724 9900.00000 0 -14579130.221 -438846.207 -20939901.508 10 0 59724 10800.00000 0 -12627163.639 -2231360.194 -22064328.364 10 0 59724 11700.00000 0 -10734327.582 -4242839.260 -22760847.428 10 0 59724 12600.00000 0 -8955289.757 -6431518.020 -23015986.416 10 0 59724 13500.00000 0 -7336880.692 -8746283.326 -22824815.677 10 0 59724 14400.00000 0 -5916287.472 -11128590.745 -22191041.670 10 0 59724 15300.00000 0 -4719665.901 -13514702.716 -21126935.789 10 0 59724 16200.00000 0 -3761227.819 -15838156.676 -19653099.839 10 0 59724 17100.00000 0 -3042840.585 -18032361.802 -17798072.190 10 0 59724 18000.00000 0 -2554154.711 -20033217.402 -15597781.644 10 0 59724 18900.00000 0 -2273253.609 -21781644.866 -13094858.702 10 0 59724 19800.00000 0 -2167797.790 -23225928.280 -10337816.622 10 0 59724 20700.00000 0 -2196615.149 -24323766.345 -7380117.397 10 0 59724 21600.00000 0 -2311670.185 -25043949.918 -4279139.985 10 0 59724 22500.00000 0 -2460328.969 -25367594.819 -1095070.315 10 0 59724 23400.00000 0 -2587823.932 -25288877.696 2110265.576 10 0 59724 24300.00000 0 -2639813.894 -24815243.702 5274602.629 10 0 59724 25200.00000 0 -2564930.468 -23967076.844 8336448.437 10 0 59724 26100.00000 0 -2317202.322 -22776846.260 11236281.529 10 0 59724 27000.00000 0 -1858253.753 -21287763.938 13917712.485 10 0 59724 27900.00000 0 -1159183.408 -19552009.935 16328584.799 10 0 59724 28800.00000 0 -202042.461 -17628599.483 18421993.573 10 0 59724 29700.00000 0 1019151.568 -15580981.372 20157201.892 10 0 59724 30600.00000 0 2497909.627 -13474468.263 21500436.841 10 0 59724 31500.00000 0 4215297.278 -11373606.636 22425549.503 10 0 59724 32400.00000 0 6140492.577 -9339596.367 22914526.094 10 0 59724 33300.00000 0 8231853.653 -7427867.743 22957840.301 10 0 59724 34200.00000 0 10438452.433 -5685917.022 22554639.961 10 0 59724 35100.00000 0 12702011.328 -4151490.608 21712764.454 10 0 59724 36000.00000 0 14959162.768 -2851193.127 20448592.390 10 0 59724 36900.00000 0 17143937.585 -1799576.957 18786722.460 10 0 59724 37800.00000 0 19190378.665 -998750.319 16759493.539 10 0 59724 38700.00000 0 21035170.774 -438519.213 14406353.256 10 0 59724 39600.00000 0 22620176.535 -97056.006 11773087.344 10 0 59724 40500.00000 0 23894772.416 57934.858 8910924.828 10 0 59724 41400.00000 0 24817886.868 67604.568 5875536.697 10 0 59724 42300.00000 0 25359655.174 -20029.520 2725948.001 10 0 59724 43200.00000 0 25502621.805 -152365.101 -476614.957 10 0 59724 44100.00000 0 25242440.166 -274690.210 -3669919.330 10 0 59724 45000.00000 0 24588040.835 -332746.820 -6791938.405 10 0 59724 45900.00000 0 23561261.923 -275273.372 -9782058.169 10 0 59724 46800.00000 0 22195957.755 -56418.034 -12582253.994 10 0 59724 47700.00000 0 20536623.998 362079.819 -15138214.342 10 0 59724 48600.00000 0 18636597.478 1009032.341 -17400389.887 10 0 59724 49500.00000 0 16555906.416 1902348.771 -19324948.139 10 0 59724 50400.00000 0 14358861.169 3048045.261 -20874615.652 10 0 59724 51300.00000 0 12111485.914 4439760.911 -22019392.423 10 0 59724 52200.00000 0 9878897.823 6058800.817 -22737125.559 10 0 59724 53100.00000 0 7722742.223 7874704.936 -23013931.992 10 0 59724 54000.00000 0 5698789.393 9846319.887 -22844462.873 10 0 59724 54900.00000 0 3854791.753 11923330.048 -22232005.033 10 0 59724 55800.00000 0 2228689.358 14048185.254 -21188417.789 10 0 59724 56700.00000 0 847237.056 16158346.071 -19733906.236 10 0 59724 57600.00000 0 -274890.735 18188754.410 -17896634.970 10 0 59724 58500.00000 0 -1135481.305 20074427.569 -15712189.095 10 0 59724 59400.00000 0 -1744635.917 21753068.517 -13222892.063 10 0 59724 60300.00000 0 -2124100.028 23167584.173 -10476992.690 10 0 59724 61200.00000 0 -2306099.992 24268406.810 -7527736.265 10 0 59724 62100.00000 0 -2331735.569 25015521.483 -4432337.029 10 0 59724 63000.00000 0 -2248996.280 25380114.358 -1250871.450 10 0 59724 63900.00000 0 -2110485.572 25345772.233 1954886.434 10 0 59724 64800.00000 0 -1970949.391 24909182.338 5122664.957 10 0 59724 65700.00000 0 -1884714.168 24080302.265 8190906.557 10 0 59724 66600.00000 0 -1903143.253 22881992.161 11099967.224 10 0 59724 67500.00000 0 -2072220.257 21349123.954 13793279.885 10 0 59724 68400.00000 0 -2430362.526 19527204.315 16218458.658 10 0 59724 69300.00000 0 -3006558.305 17470568.758 18328321.934 10 0 59724 70200.00000 0 -3818907.483 15240222.229 20081814.077 10 0 59724 71100.00000 0 -4873628.863 12901416.320 21444807.598 10 0 59724 72000.00000 0 -6164577.029 10521064.404 22390770.010 10 0 59724 72900.00000 0 -7673290.517 8165102.517 22901282.393 10 0 59724 73800.00000 0 -9369570.543 5895905.997 22966399.609 10 0 59724 74700.00000 0 -11212567.076 3769869.537 22584845.124 10 0 59724 75600.00000 0 -13152327.796 1835251.178 21764036.682 10 0 59724 76500.00000 0 -15131745.820 130369.682 20519942.252 10 0 59724 77400.00000 0 -17088825.191 -1317770.138 18876768.929 10 0 59724 78300.00000 0 -18959169.683 -2494367.635 16866490.767 10 0 59724 79200.00000 0 -20678590.844 -3397195.982 14528224.557 10 0 59724 80100.00000 0 -22185725.986 -4036437.047 11907465.731 10 0 59724 81000.00000 0 -23424556.245 -4433989.877 9055199.324 10 0 59724 81900.00000 0 -24346718.939 -4622283.443 6026903.467 10 0 59724 82800.00000 0 -24913516.941 -4642645.171 2881465.296 10 0 59724 83700.00000 0 -25097540.618 -4543295.672 -319969.171 10 0 59724 84600.00000 0 -24883834.235 -4377055.769 -3515188.244 10 0 59724 85500.00000 0 -24270557.968 -4198864.030 -6642126.916 10 0 59725 0.00000 0 -23269118.185 -4063210.840 -9640074.056 10 0 59725 900.00000 0 -21903760.312 -4021598.294 -12450852.201 10 0 59725 1800.00000 0 -20210643.284 -4120134.031 -15019942.774 10 0 59725 2700.00000 0 -18236432.999 -4397360.724 -17297540.464 10 0 59725 3600.00000 0 -16036475.167 -4882413.221 -19239512.640 10 0 59725 4500.00000 0 -13672623.574 -5593580.996 -20808247.456 10 0 59725 5400.00000 0 -11210814.248 -6537336.492 -21973374.825 10 0 59725 6300.00000 0 -8718486.097 -7707870.409 -22712347.248 10 0 59725 7200.00000 0 -6261954.657 -9087153.746 -23010870.131 10 0 59725 8100.00000 0 -3903847.066 -10645524.595 -22863174.076 10 0 59725 9000.00000 0 -1700703.611 -12342775.996 -22272124.397 10 0 59725 9900.00000 0 299155.787 -14129700.310 -21249165.999 10 0 59725 10800.00000 0 2057412.865 -15950026.836 -19814104.597 10 0 59725 11700.00000 0 3547107.343 -17742672.922 -17994728.100 10 0 59725 12600.00000 0 4753512.898 -19444215.686 -15826274.830 10 0 59725 13500.00000 0 5674497.342 -20991482.067 -13350758.072 10 0 59725 14400.00000 0 6320352.795 -22324149.672 -10616159.083 10 0 59725 15300.00000 0 6713103.587 -23387249.913 -7675503.381 10 0 59725 16200.00000 0 6885321.557 -24133468.839 -4585837.566 10 0 59725 17100.00000 0 6878498.953 -24525148.794 -1407125.904 10 0 59725 18000.00000 0 6741047.824 -24535906.276 1798912.088 10 0 59725 18900.00000 0 6526010.865 -24151797.430 4970000.453 10 0 59725 19800.00000 0 6288580.882 -23371981.223 8044518.532 10 0 59725 20700.00000 0 6083534.299 -22208851.495 10962701.550 10 0 59725 21600.00000 0 5962687.997 -20687631.286 13667806.307 10 0 59725 22500.00000 0 5972487.853 -18845445.609 16107218.785 10 0 59725 23400.00000 0 6151831.868 -16729910.764 18233481.616 10 0 59725 24300.00000 0 6530220.858 -14397298.704 20005221.096 10 0 59725 25200.00000 0 7126315.878 -11910352.703 21387955.499 10 0 59725 26100.00000 0 7946964.254 -9335845.324 22354768.797 10 0 59725 27000.00000 0 8986736.390 -6741980.309 22886836.672 10 0 59725 27900.00000 0 10227993.879 -4195746.428 22973794.616 10 0 59725 28800.00000 0 11641487.036 -1760333.403 22613940.937 10 0 59725 29700.00000 0 13187457.633 507282.865 21814270.754 10 0 59725 30600.00000 0 14817201.298 2558485.642 20590340.214 10 0 59725 31500.00000 0 16475024.531 4354804.395 18965963.500 10 0 59725 32400.00000 0 18100514.608 5869269.848 16972748.387 10 0 59725 33300.00000 0 19631027.289 7087281.463 14649479.242 10 0 59725 34200.00000 0 21004287.817 8006952.237 12041359.477 10 0 59725 35100.00000 0 22160995.844 8638917.787 9199128.255 10 0 59725 36000.00000 0 23047324.511 9005619.266 6178068.824 10 0 59725 36900.00000 0 23617208.304 9140091.888 3036928.218 10 0 59725 37800.00000 0 23834323.168 9084311.706 -163230.151 10 0 59725 38700.00000 0 23673675.388 8887171.999 -3360218.142 10 0 59725 39600.00000 0 23122732.289 8602176.092 -6491934.870 10 0 59725 40500.00000 0 22182047.269 8284945.367 -9497574.971 10 0 59725 41400.00000 0 20865353.015 7990648.717 -12318809.289 10 0 59725 42300.00000 0 19199119.218 7771462.772 -14900914.806 10 0 59725 43200.00000 0 17221593.519 7674170.529 -17193832.051 10 0 59725 44100.00000 0 14981365.907 7737999.913 -19153129.854 10 0 59725 45000.00000 0 12535516.590 7992793.319 -20740859.352 10 0 59725 45900.00000 0 9947424.296 8457585.116 -21926281.566 10 0 59725 46800.00000 0 7284325.780 9139646.812 -22686455.388 10 0 59725 47700.00000 0 4614727.316 10034040.000 -23006675.482 10 0 59725 48600.00000 0 2005774.676 11123696.017 -22880752.436 10 0 59725 49500.00000 0 -479310.457 12380019.450 -22311130.294 10 0 59725 50400.00000 0 -2783622.501 13763990.856 -21308839.450 10 0 59725 51300.00000 0 -4858694.522 15227723.450 -19893285.761 10 0 59725 52200.00000 0 -6666264.537 16716409.650 -18091879.559 10 0 59725 53100.00000 0 -8179613.254 18170577.015 -15939511.126 10 0 59725 54000.00000 0 -9384418.697 19528560.140 -13477881.938 10 0 59725 54900.00000 0 -10279092.945 20729085.694 -10754703.710 10 0 59725 55800.00000 0 -10874587.671 21713862.773 -7822779.978 10 0 59725 56700.00000 0 -11193677.211 22430070.034 -4738987.254 10 0 59725 57600.00000 0 -11269749.729 22832634.949 -1563174.961 10 0 59725 58500.00000 0 -11145157.811 22886208.940 1642994.648 10 0 59725 59400.00000 0 -10869198.347 22566754.438 4817244.115 10 0 59725 60300.00000 0 -10495807.475 21862676.162 7897892.500 10 0 59725 61200.00000 0 -10081068.471 20775447.954 10825057.079 10 0 59725 62100.00000 0 -9680638.447 19319707.539 13541821.270 10 0 59725 63000.00000 0 -9347203.367 17522814.036 15995345.571 10 0 59725 63900.00000 0 -9128069.649 15423885.762 18137899.363 10 0 59725 64800.00000 0 -9062994.924 13072357.657 19927793.197 10 0 59725 65700.00000 0 -9182350.346 10526117.869 21330193.214 10 0 59725 66600.00000 0 -9505692.803 7849300.775 22317801.666 10 0 59725 67500.00000 0 -10040808.025 5109827.971 22871390.327 10 0 59725 68400.00000 0 -10783265.660 2376799.274 22980176.413 10 0 59725 69300.00000 0 -11716505.785 -282157.904 22642033.717 10 0 59725 70200.00000 0 -12812453.816 -2803470.914 21863534.857 10 0 59725 71100.00000 0 -14032638.557 -5130028.902 20659823.740 10 0 59725 72000.00000 0 -15329766.758 -7213314.786 19054320.633 10 0 59725 72900.00000 0 -16649688.272 -9015174.016 17078265.458 10 0 59725 73800.00000 0 -17933669.291 -10509147.258 14770108.029 10 0 59725 74700.00000 0 -19120877.944 -11681312.243 12174757.116 10 0 59725 75600.00000 0 -20150977.472 -12530600.889 9342702.983 10 0 59725 76500.00000 0 -20966717.448 -13068579.792 6329030.631 10 0 59725 77400.00000 0 -21516413.501 -13318704.794 3192343.417 10 0 59725 78300.00000 0 -21756210.652 -13315082.675 -6381.569 10 0 59725 79200.00000 0 -21652034.509 -13100793.692 -3204983.496 10 0 59725 80100.00000 0 -21181147.817 -12725847.258 -6341329.335 10 0 59725 81000.00000 0 -20333246.646 -12244858.399 -9354522.860 10 0 59725 81900.00000 0 -19111049.948 -11714544.190 -12186087.236 10 0 59725 82800.00000 0 -17530357.725 -11191146.721 -14781097.947 10 0 59725 83700.00000 0 -15619575.320 -10727891.812 -17089244.232 10 0 59725 84600.00000 0 -13418723.655 -10372590.893 -19065798.818 10 0 59725 85500.00000 0 -10977976.681 -10165486.988 -20672477.706 10 0 59726 0.00000 0 -8355786.908 -10137435.241 -21878174.177 10 0 59726 900.00000 0 -5616675.059 -10308494.140 -22659554.280 10 0 59726 1800.00000 0 -2828778.579 -10686986.304 -23001501.648 10 0 59726 2700.00000 0 -61255.063 -11269067.960 -22897406.016 10 0 59726 3600.00000 0 2618349.380 -12038825.303 -22349288.701 10 0 59726 4500.00000 0 5146660.337 -12968893.825 -21367763.597 10 0 59726 5400.00000 0 7466858.818 -14021575.213 -19971834.286 10 0 59726 6300.00000 0 9530790.950 -15150405.696 -18188530.767 10 0 59726 7200.00000 0 11300717.140 -16302110.899 -16052392.245 10 0 59726 8100.00000 0 12750629.074 -17418866.080 -13604805.160 10 0 59726 9000.00000 0 13867080.550 -18440767.619 -10893208.319 10 0 59726 9900.00000 0 14649498.211 -19308412.525 -7970179.807 10 0 59726 10800.00000 0 15109959.759 -19965477.818 -4892422.555 10 0 59726 11700.00000 0 15272449.444 -20361191.230 -1719667.750 10 0 59726 12600.00000 0 15171622.375 -20452588.731 1486482.875 10 0 59726 13500.00000 0 14851130.113 -20206463.093 4663753.440 10 0 59726 14400.00000 0 14361578.576 -19600920.521 7750405.467 10 0 59726 15300.00000 0 13758204.745 -18626478.485 10686440.660 10 0 59726 16200.00000 0 13098370.789 -17286657.262 13414771.029 10 0 59726 17100.00000 0 12438981.992 -15598038.913 15882333.108 10 0 59726 18000.00000 0 11833938.100 -13589789.870 18041124.099 10 0 59726 18900.00000 0 11331726.307 -11302665.912 19849139.436 10 0 59726 19800.00000 0 10973258.094 -8787540.031 21271193.323 10 0 59726 20700.00000 0 10790041.701 -6103513.852 22279606.088 10 0 59726 21600.00000 0 10802767.807 -3315690.592 22854745.025 10 0 59726 22500.00000 0 11020368.485 -492701.722 22985408.180 10 0 59726 23400.00000 0 11439589.446 2295910.135 22669043.652 10 0 59726 24300.00000 0 12045093.941 4982343.647 21911800.144 10 0 59726 25200.00000 0 12810094.190 7503116.681 20728407.719 10 0 59726 26100.00000 0 13697483.955 9801462.765 19141890.979 10 0 59726 27000.00000 0 14661424.628 11829446.905 17183120.111 10 0 59726 27900.00000 0 15649317.991 13549713.260 14890208.402 10 0 59726 28800.00000 0 16604082.362 14936792.463 12307767.914 10 0 59726 29700.00000 0 17466635.852 15977915.009 9486037.846 10 0 59726 30600.00000 0 18178481.623 16673297.843 6479902.713 10 0 59726 31500.00000 0 18684285.553 17035893.444 3347819.874 10 0 59726 32400.00000 0 18934337.034 17090613.475 150677.751 10 0 59726 33300.00000 0 18886788.535 16873061.208 -3049392.491 10 0 59726 34200.00000 0 18509578.990 16427827.628 -6190227.968 10 0 59726 35100.00000 0 17781959.546 15806424.476 -9210843.759 10 0 59726 36000.00000 0 16695557.074 15064942.613 -12052617.331 10 0 59726 36900.00000 0 15254930.503 14261535.398 -14660424.442 10 0 59726 37800.00000 0 13477596.378 13453833.797 -16983704.583 10 0 59726 38700.00000 0 11393522.302 12696402.428 -18977435.684 10 0 59726 39600.00000 0 9044109.177 12038343.557 -20602999.723 10 0 59726 40500.00000 0 6480704.251 11521149.544 -21828923.354 10 0 59726 41400.00000 0 3762706.246 11176893.434 -22631480.114 10 0 59726 42300.00000 0 955340.634 11026833.090 -22995143.447 10 0 59726 43200.00000 0 -1872803.629 11080486.858 -22912882.606 10 0 59726 44100.00000 0 -4652374.908 11335219.080 -22386296.285 10 0 59726 45000.00000 0 -7315890.611 11776352.623 -21425581.664 10 0 59726 45900.00000 0 -9800292.099 12377803.708 -20049339.463 10 0 59726 46800.00000 0 -12049318.132 13103212.701 -18284218.390 10 0 59726 47700.00000 0 -14015599.451 13907523.902 -16164405.253 10 0 59726 48600.00000 0 -15662388.468 14738948.569 -13730969.802 10 0 59726 49500.00000 0 -16964853.008 15541229.322 -11031076.040 10 0 59726 50400.00000 0 -17910880.714 16256111.212 -8117074.514 10 0 59726 51300.00000 0 -18501361.018 16825915.724 -5045492.372 10 0 59726 52200.00000 0 -18749933.279 17196109.338 -1875940.243 10 0 59726 53100.00000 0 -18682211.860 17317758.041 1330043.049 10 0 59726 54000.00000 0 -18334520.989 17149763.647 4510185.592 10 0 59726 54900.00000 0 -17752193.018 16660786.687 7602693.840 10 0 59726 55800.00000 0 -16987502.022 15830773.623 10547456.427 10 0 59726 56700.00000 0 -16097320.314 14652022.675 13287216.449 10 0 59726 57600.00000 0 -15140597.080 13129741.807 15768688.962 10 0 59726 58500.00000 0 -14175765.997 11282073.984 17943601.405 10 0 59726 59400.00000 0 -13258191.641 9139587.151 19769636.391 10 0 59726 60300.00000 0 -12437762.771 6744248.874 21211258.300 10 0 59726 61200.00000 0 -11756734.300 4147927.402 22240407.424 10 0 59726 62100.00000 0 -11247909.147 1410480.648 22837048.154 10 0 59726 63000.00000 0 -10933236.720 -1402488.115 22989560.600 10 0 59726 63900.00000 0 -10822887.156 -4222115.006 22694967.999 10 0 59726 64800.00000 0 -10914840.307 -6978897.924 21958995.534 10 0 59726 65700.00000 0 -11195006.689 -9605347.962 20795959.342 10 0 59726 66600.00000 0 -11637875.212 -12038559.884 19228487.775 10 0 59726 67500.00000 0 -12207660.152 -14222595.110 17287080.208 10 0 59726 68400.00000 0 -12859898.758 -16110578.441 15009511.832 10 0 59726 69300.00000 0 -13543431.725 -17666421.556 12440095.972 10 0 59726 70200.00000 0 -14202682.503 -18866102.092 9628818.347 10 0 59726 71100.00000 0 -14780138.645 -19698445.680 6630360.226 10 0 59726 72000.00000 0 -15218929.772 -20165379.251 3503029.946 10 0 59726 72900.00000 0 -15465392.595 -20281646.236 307624.027 10 0 59726 73800.00000 0 -15471513.967 -20073997.034 -2893759.410 10 0 59726 74700.00000 0 -15197148.188 -19579890.200 -6038931.100 10 0 59726 75600.00000 0 -14611914.413 -18845760.449 -9066820.943 10 0 59726 76500.00000 0 -13696693.714 -17924927.673 -11918664.206 10 0 59726 77400.00000 0 -12444662.331 -16875236.077 -14539140.309 10 0 59726 78300.00000 0 -10861817.358 -15756523.576 -16877442.191 10 0 59726 79200.00000 0 -8966972.372 -14628028.321 -18888255.867 10 0 59726 80100.00000 0 -6791222.826 -13545841.437 -20532631.752 10 0 59726 81000.00000 0 -4376902.977 -12560512.675 -21778731.706 10 0 59726 81900.00000 0 -1776077.110 -11714908.867 -22602438.293 10 0 59726 82800.00000 0 951372.947 -11042414.250 -22987815.313 10 0 59726 83700.00000 0 3739985.639 -10565547.254 -22927411.571 10 0 59726 84600.00000 0 6521191.157 -10295050.864 -22422402.559 10 0 59726 85500.00000 0 9225915.296 -10229494.056 -21482567.613 99